ADEOS

导读

ADEOS是日本宇宙开发事业团研制的先进地球观测卫星,于1996年8月17日发射升空。该卫星作为日本第二代对地遥感卫星,承载着全球环境变化监测核心使命,搭载多类观测载荷可开展海洋观测、陆地监测与大气研究,旨在构建空间对地观测数据获取平台,为全球气候变化研究、资源环境调查提供关键遥感数据,是日本在地球观测领域的重要技术探索。

基本信息
目录编号:
24277
目录名称:
ADEOS
国际标识:
1996-046A
轨道中心:
EARTH
卫星名称:
ADEOS
卫星全名:
--
卫星状态:
在轨 (已飞行10900 天)
发射日期:
1996-08-17 UTC
国别 :
日本 (JP)
星等 :
--
轨道信息
数据来源 国际轨道数据 AOE轨道数据
星历时间 2026-06-20T17:08:28+0800
1天前
查看轨道信息
2026-06-21T00:00:00+0800
18小时前
查看轨道信息
半长轴 7168.538km 7168.539km
偏心率 0.0002407 0.0002424
轨道倾角 98.800° 98.799°
近地点辐角 98.006° 97.198°
升交点赤经 225.813° 226.103°
平近点角 262.140° 293.725°
近地点 788.675km 788.664km
远地点 792.127km 792.14km
周期 100.671分钟 100.671分钟
每日圈数 14.303982 14.303978
详细信息
使用方式:
暂无
2D轨道图
3D轨道图
轨道高度分析图
轨道倾角分析图
轨道综合分析图
查看轨道综合分析图